Skip Page Navigation
NASA JPL Caltech
NASA Logo - Jet Propulsion Laboratory + View the NASA Portal
+ Center for Near-Earth Object Studies
JPL Home Earth Solar System Stars & Galaxies Technology
JPL Solar System Dynamics
BODIES ORBITS EPHEMERIDES TOOLS PHYSICAL DATA DISCOVERY FAQ SITE MAP
IMPORTANT: The SSD Announcement email list is now available. Major changes are coming in the near future, including possible hostname and/or URL changes. To be notified of such changes, subscribe to this email list.

Please visit this page for more details.


JPL Small-Body Database Browser
Search: [ help ]  
160051 (1999 TB260)
Classification: Main-belt Asteroid          SPK-ID: 2160051
Ephemeris | Orbit Diagram | Orbital Elements | Mission Design | Physical Parameters | Discovery Circumstances ]

[ show orbit diagram ]
Orbital Elements at Epoch 2459000.5 (2020-May-31.0) TDB
Reference: JPL 17 (heliocentric ecliptic J2000)
 Element Value Uncertainty (1-sigma)   Units 
e .320341144353374 7.357e-08  
a 2.588293904125988 3.2508e-08 au
q 1.759156872955407 2.073e-07 au
i 12.86611580386201 6.8344e-06 deg
node 71.05672272122013 2.2707e-05 deg
peri 269.3217928954309 3.1342e-05 deg
M 10.97552604632123 3.4935e-05 deg
tp 2458954.129513209833
(2020-Apr-14.62951321)
0.00014678 TDB
period 1520.963566940397
4.16
2.8654e-05
7.845e-08
d
yr
n .2366920601025202 4.4591e-09 deg/d
Q 3.417430935296569 4.2921e-08 au
  Orbit Determination Parameters
   # obs. used (total)      374  
   data-arc span      8659 days (23.71 yr)  
   first obs. used      1995-12-03  
   last obs. used      2019-08-18  
   planetary ephem.      DE431  
   SB-pert. ephem.      SB431-N16  
   condition code      0  
   norm. resid. RMS      .48896  
   source      ORB  
   producer      Otto Matic  
   solution date      2020-Feb-24 13:13:00  

Additional Information
 Earth MOID = .807709 au 
 Jupiter MOID = 2.17564 au 
 T_jup = 3.313 
[ show covariance matrix ]

Ephemeris | Orbit Diagram | Orbital Elements | Mission Design | Physical Parameters | Discovery Circumstances ]

Physical Parameter Table
Parameter Symbol Value Units Sigma Reference Notes
absolute magnitude H 15.6   n/a MPO436807  

160051 (1999 TB260)          Discovered 1999-Oct-09 by LINEAR at Socorro
Reference: 20070730/Numbers.arcLast Updated: 2007-08-06
Ephemeris | Orbit Diagram | Orbital Elements | Mission Design | Physical Parameters | Discovery Circumstances ]
ABOUT SSD CREDITS/AWARDS PRIVACY/COPYRIGHT GLOSSARY LINKS
FirstGov 2020-May-29 20:00 UT
(server date/time)  
NASA Home Page
Site Manager:   Ryan S. Park
Webmaster  Alan B. Chamberlin